Location: Mountain Meadows Observatory
(38.9513°N, 78.9327°W)
Time: 04:40:15
(UTC-04:00)

Envisat - Visible Passes

Search period start: 19 May 2019 00:00
Search period end: 29 May 2019 00:00
Orbit: 764 x 766 km, 98.2° (Epoch: 19 May)

Date Brightness Start Highest point End Pass type
(mag) Time Alt. Az. Time Alt. Az. Time Alt. Az.
21 May 5.6 20:52:57 10° SW 20:56:37 20° W 21:00:20 10° NW visible
23 May 6.1 21:21:18 10° WSW 21:22:25 11° W 21:23:33 10° WNW visible
26 May 5.8 21:08:26 10° WSW 21:11:04 14° W 21:13:43 10° WNW visible
